星链-31951 (STARLINK-31951 )

导读 | 豆包AI

STARLINK-31951是美国太空探索技术公司SpaceX星链卫星互联网项目的组成卫星,于2024年5月28日发射入轨。它隶属于星链低轨星座组网卫星,旨在为全球提供高速低延迟互联网接入服务,进一步扩充星链星座的在轨卫星规模,提升全球覆盖密度与服务稳定性,助力星链在民用及商用领域持续拓展服务能力。

Basic Information
目录编号:
59890
目录名称:
STARLINK-31951
国际标识:
2024-100F
轨道中心:
EARTH
卫星名称:
星链-31951
卫星全名:
星链-31951 (STARLINK-31951 )
卫星状态:
在轨 (已飞行703 天)
发射日期:
2024-05-28 UTC
国别 :
美国 (US)
星等 :
--
Orbit Information
数据来源 国际轨道数据 AOE轨道数据
星历时间 2026-04-30T21:40:27+0800
13小时前
查看轨道信息
2026-04-26T07:00:00+0800
5天前
查看轨道信息
半长轴 6861.14km 6861.127km
偏心率 0.0000674 0.0001624
轨道倾角 43.002° 43.003°
近地点辐角 254.115° 297.178°
升交点赤经 192.202° 218.247°
平近点角 105.963° 233.631°
近地点 482.54km 481.875km
远地点 483.466km 484.105km
周期 94.266分钟 94.266分钟
每日圈数 15.275954 15.275998
Detailed Information
固有亮度:
5
最大亮度:
1.5
卫星平台:
Starlink v2.0 mini
覆盖范围:
全球
运营商:
太空探索技术公司
运营商所在国:
美国
制造商(研发单位):
太空探索技术公司
制造商所在国:
美国
使用方式:
暂无
Satellite Introduction
星链(Starlink)计划是由太空探索技术公司(SpaceX)提出的一个巨型低轨卫星互联网星座项目,计划在2019年至2024年间在太空搭建由约1.2万颗卫星组成的“星链”网络,其中1584颗将部署在地球上空550千米处的近地轨道,并从2020年开始工作。该卫星仍在工作。
2D Orbit Map
3D Orbit Map
Orbit Altitude Analysis Chart
Orbit Inclination Analysis Chart
Orbit Comprehensive Analysis Chart
View Comprehensive Chart